WA4TPR Weather Reports


time (UTC)temp
C
wind
direction
speed
KPH
gust
KPH
rain 1hr
cm
rain 24hr
cm
rain mn
cm
humidity
%
barometer
mb
20260505041700 21 95 4.8 8.0 0.00 0.00 0.00 89 1019.2
20260505041158 21 95 6.4 11.3 0.00 0.00 0.00 89 1019.2
20260505040655 21 109 1.6 4.8 0.00 0.00 0.00 89 1019.4
20260505040152 21 77 3.2 4.8 0.00 0.00 0.00 89 1019.4
20260505035648 21 109 3.2 4.8 0.00 0.00 0.00 89 1019.3
20260505035145 21 110 3.2 12.9 0.00 0.00 0.00 89 1019.5
20260505034641 21 113 4.8 11.3 0.00 0.00 0.00 88 1019.4
20260505034139 21 100 3.2 9.7 0.00 0.00 0.00 89 1019.6
20260505033635 21 100 1.6 12.9 0.00 0.00 0.00 88 1019.6
20260505033133 21 94 6.4 9.7 0.00 0.00 0.00 89 1019.6
20260505032631 21 107 6.4 11.3 0.00 0.00 0.00 89 1019.7
20260505032127 21 119 3.2 8.0 0.00 0.00 0.00 89 1019.6
20260505031624 21 114 4.8 9.7 0.00 0.00 0.00 88 1019.4
20260505031120 21 115 3.2 11.3 0.00 0.00 0.00 88 1019.7
20260505030618 21 133 8.0 11.3 0.00 0.00 0.00 88 1019.7
20260505030113 21 117 4.8 12.9 0.00 0.00 0.00 88 1019.6
20260505025609 21 89 8.0 12.9 0.00 0.00 0.00 88 1019.8
20260505025108 21 108 3.2 8.0 0.00 0.00 0.00 88 1019.7
20260505024605 21 120 4.8 8.0 0.00 0.00 0.00 88 1019.6
20260505024103 21 99 3.2 9.7 0.00 0.00 0.00 88 1019.7
20260505023559 21 92 4.8 8.0 0.00 0.00 0.00 87 1020.0
20260505023057 21 97 3.2 9.7 0.00 0.00 0.00 87 1019.6
20260505022554 22 157 1.6 4.8 0.00 0.00 0.00 87 1019.6
20260505022051 22 97 4.8 9.7 0.00 0.00 0.00 87 1019.5
20260505021548 22 91 6.4 11.3 0.00 0.00 0.00 87 1019.7
20260505021045 22 103 6.4 9.7 0.00 0.00 0.00 87 1019.3
20260505020544 22 99 3.2 11.3 0.00 0.00 0.00 86 1019.4
20260505020042 22 104 11.3 14.5 0.00 0.00 0.00 86 1019.5
20260505015539 22 109 6.4 9.7 0.00 0.00 0.00 86 1019.5
20260505015035 22 126 4.8 12.9 0.00 0.00 0.00 86 1019.3
20260505014532 22 129 8.0 11.3 0.00 0.00 0.00 86 1019.2
20260505014030 22 89 4.8 12.9 0.00 0.00 0.00 85 1019.2
20260505013527 22 106 6.4 14.5 0.00 0.00 0.00 85 1019.4
20260505013024 22 104 8.0 12.9 0.00 0.00 0.00 85 1019.2
20260505012522 22 39 8.0 14.5 0.00 0.00 0.00 85 1019.5
20260505012019 22 58 6.4 9.7 0.00 0.00 0.00 85 1019.3
20260505011514 22 77 9.7 14.5 0.00 0.00 0.00 85 1019.0
20260505011011 22 106 3.2 9.7 0.00 0.00 0.00 85 1019.3
20260505010507 22 159 8.0 16.1 0.00 0.00 0.00 84 1019.5
20260505010004 22 94 6.4 14.5 0.00 0.00 0.00 84 1019.4
20260505005500 22 73 4.8 11.3 0.00 0.00 0.00 85 1019.2
20260505004958 22 95 8.0 11.3 0.00 0.00 0.00 84 1018.8
20260505004454 22 104 9.7 14.5 0.00 0.00 0.00 84 1018.8
20260505003951 22 70 9.7 14.5 0.00 0.00 0.00 84 1018.7
20260505003448 23 75 8.0 14.5 0.00 0.00 0.00 83 1018.6
20260505002944 23 92 6.4 12.9 0.00 0.00 0.00 82 1018.4
20260505002441 23 97 6.4 14.5 0.00 0.00 0.00 82 1018.5
20260505001939 23 136 3.2 17.7 0.00 0.00 0.00 82 1018.7
20260505001437 23 157 11.3 14.5 0.00 0.00 0.00 81 1018.7
20260505000933 23 133 4.8 22.5 0.00 0.00 0.00 81 1018.7
20260505000432 23 178 6.4 12.9 0.00 0.00 0.00 80 1018.6
20260504235928 23 84 3.2 11.3 0.00 0.00 0.00 80 1018.5
20260504235425 23 206 11.3 22.5 0.00 0.00 0.00 80 1018.3
20260504234921 23 101 14.5 22.5 0.00 0.00 0.00 80 1018.3
20260504234419 23 158 12.9 14.5 0.00 0.00 0.00 80 1018.1
20260504233915 23 82 14.5 17.7 0.00 0.00 0.00 79 1017.9
20260504233411 23 107 11.3 22.5 0.00 0.00 0.00 79 1018.0
20260504232908 23 154 4.8 12.9 0.00 0.00 0.00 79 1017.9
20260504232405 23 137 8.0 14.5 0.00 0.00 0.00 78 1017.8
20260504231902 24 108 8.0 12.9 0.00 0.00 0.00 78 1017.9
20260504231358 24 65 3.2 17.7 0.00 0.00 0.00 78 1017.9
20260504230855 24 148 12.9 22.5 0.00 0.00 0.00 77 1018.1
20260504230352 25 141 8.0 12.9 0.00 0.00 0.00 77 1017.8
20260504225851 25 105 11.3 22.5 0.00 0.00 0.00 76 1018.0
20260504225347 25 58 9.7 22.5 0.00 0.00 0.00 75 1017.7
20260504224844 25 90 17.7 24.1 0.00 0.00 0.00 74 1017.7
20260504224341 25 70 6.4 14.5 0.00 0.00 0.00 74 1017.9
20260504223838 25 165 6.4 16.1 0.00 0.00 0.00 74 1017.8
20260504223333 25 161 11.3 14.5 0.00 0.00 0.00 73 1018.0
20260504222830 26 102 4.8 9.7 0.00 0.00 0.00 72 1017.7
20260504222327 26 146 8.0 20.9 0.00 0.00 0.00 73 1017.7
20260504221826 26 86 12.9 14.5 0.00 0.00 0.00 72 1017.8
20260504221322 26 106 4.8 17.7 0.00 0.00 0.00 73 1017.9
20260504220819 25 124 9.7 14.5 0.00 0.00 0.00 72 1017.9
20260504220316 26 203 11.3 17.7 0.00 0.00 0.00 72 1017.9
20260504215813 26 97 4.8 14.5 0.00 0.00 0.00 72 1017.8
20260504215309 26 150 6.4 14.5 0.00 0.00 0.00 72 1017.7
20260504214805 26 101 11.3 25.7 0.00 0.00 0.00 73 1017.7
20260504214303 25 82 12.9 20.9 0.00 0.00 0.00 72 1017.5
20260504213759 26 79 11.3 17.7 0.00 0.00 0.00 72 1017.7
20260504213255 26 107 9.7 22.5 0.00 0.00 0.00 71 1017.5
20260504212752 26 110 6.4 24.1 0.00 0.00 0.00 71 1017.8
20260504212249 26 103 8.0 17.7 0.00 0.00 0.00 72 1017.8
20260504211746 26 165 8.0 20.9 0.00 0.00 0.00 69 1017.7
20260504211242 26 83 8.0 12.9 0.00 0.00 0.00 70 1017.6
20260504210740 26 136 14.5 20.9 0.00 0.00 0.00 71 1017.8
20260504210237 26 57 12.9 24.1 0.00 0.00 0.00 71 1017.8
20260504205734 26 75 9.7 20.9 0.00 0.00 0.00 70 1017.9
20260504205232 26 64 12.9 20.9 0.00 0.00 0.00 71 1017.8
20260504204730 26 69 14.5 32.2 0.00 0.00 0.00 71 1017.8
20260504204228 26 93 11.3 20.9 0.00 0.00 0.00 70 1017.6
20260504203727 26 60 16.1 22.5 0.00 0.00 0.00 71 1017.9
20260504203223 26 103 6.4 16.1 0.00 0.00 0.00 72 1017.7
20260504202718 26 84 8.0 20.9 0.00 0.00 0.00 70 1017.8
20260504202215 26 66 8.0 17.7 0.00 0.00 0.00 70 1018.1
20260504201712 26 96 11.3 24.1 0.00 0.00 0.00 71 1018.1
20260504201210 27 80 8.0 14.5 0.00 0.00 0.00 67 1018.0
20260504200707 27 139 4.8 16.1 0.00 0.00 0.00 69 1018.0
20260504200203 27 55 8.0 17.7 0.00 0.00 0.00 68 1017.9
20260504195659 27 103 12.9 24.1 0.00 0.00 0.00 67 1018.1
20260504195155 26 52 17.7 20.9 0.00 0.00 0.00 69 1018.2
20260504194653 27 96 9.7 16.1 0.00 0.00 0.00 69 1018.1
20260504194148 27 87 4.8 20.9 0.00 0.00 0.00 66 1018.4
20260504193645 27 60 16.1 24.1 0.00 0.00 0.00 67 1018.3
20260504193143 27 108 14.5 16.1 0.00 0.00 0.00 68 1018.5
20260504192641 27 85 4.8 12.9 0.00 0.00 0.00 66 1018.5
20260504192139 27 49 8.0 24.1 0.00 0.00 0.00 68 1018.7
20260504191637 27 95 14.5 17.7 0.00 0.00 0.00 68 1018.8
20260504191133 26 66 17.7 22.5 0.00 0.00 0.00 70 1018.7
20260504190629 26 42 11.3 16.1 0.00 0.00 0.00 71 1018.8
20260504190126 26 55 8.0 22.5 0.00 0.00 0.00 70 1018.9
20260504185622 26 61 8.0 24.1 0.00 0.00 0.00 71 1019.1
20260504185119 27 87 6.4 20.9 0.00 0.00 0.00 71 1019.1
20260504184615 27 77 6.4 14.5 0.00 0.00 0.00 69 1019.3
20260504184110 27 161 17.7 25.7 0.00 0.00 0.00 68 1019.2
20260504183607 27 90 6.4 17.7 0.00 0.00 0.00 67 1019.3
20260504183105 27 74 9.7 16.1 0.00 0.00 0.00 68 1019.2
20260504182602 27 94 6.4 14.5 0.00 0.00 0.00 70 1019.3
20260504182059 27 96 11.3 17.7 0.00 0.00 0.00 68 1019.4
20260504181556 27 91 6.4 14.5 0.00 0.00 0.00 69 1019.5
20260504181054 26 121 11.3 16.1 0.00 0.00 0.00 69 1019.7
20260504180553 26 60 11.3 14.5 0.00 0.00 0.00 70 1019.5
20260504180052 27 59 12.9 20.9 0.00 0.00 0.00 70 1019.3
20260504175548 27 47 8.0 14.5 0.00 0.00 0.00 70 1019.5
20260504175045 27 36 11.3 20.9 0.00 0.00 0.00 70 1019.7
20260504174543 26 116 11.3 16.1 0.00 0.00 0.00 70 1019.6
20260504174040 26 90 6.4 22.5 0.00 0.00 0.00 70 1019.5
20260504173537 27 61 6.4 16.1 0.00 0.00 0.00 69 1019.7
20260504173034 27 77 11.3 20.9 0.00 0.00 0.00 68 1019.9
20260504172530 26 95 3.2 12.9 0.00 0.00 0.00 70 1019.9
20260504172027 26 68 8.0 12.9 0.00 0.00 0.00 70 1020.0
20260504171524 26 135 8.0 14.5 0.00 0.00 0.00 71 1019.9
20260504171021 26 62 8.0 20.9 0.00 0.00 0.00 70 1020.0
20260504170516 26 96 4.8 20.9 0.00 0.00 0.00 70 1019.9
20260504160437 26 54 4.8 17.7 0.00 0.00 0.00 68 1020.6
20260504150900 25 101 8.0 16.1 0.00 0.00 0.00 70 1020.6
20260504150358 25 73 4.8 17.7 0.00 0.00 0.00 70 1020.7
20260504141327 24 80 8.0 17.7 0.00 0.00 0.00 76 1020.3
20260504140824 24 55 3.2 12.9 0.00 0.00 0.00 77 1020.3
20260504140319 24 89 3.2 20.9 0.00 0.00 0.00 78 1020.3
20260504130748 22 57 6.4 12.9 0.00 0.00 0.00 83 1020.0
20260504130244 22 95 1.6 12.9 0.00 0.00 0.00 84 1020.1
20260504120208 21 56 9.7 12.9 0.00 0.00 0.00 88 1019.6
20260504110635 21 112 3.2 11.3 0.00 0.00 0.00 89 1019.3
20260504110131 21 55 3.2 4.8 0.00 0.00 0.00 89 1019.0
20260504100552 20 34 3.2 9.7 0.00 0.00 0.00 91 1018.6
20260504081945 20 23 8.0 14.5 0.00 0.00 0.00 90 1018.7
20260504081442 20 10 6.4 12.9 0.00 0.00 0.00 90 1019.0
20260504080938 20 90 4.8 4.8 0.00 0.00 0.00 90 1018.7
20260504080435 20 18 4.8 9.7 0.00 0.00 0.00 90 1018.8
20260504070403 20 72 1.6 4.8 0.00 0.00 0.00 92 1018.5
20260504050750 21 91 1.6 9.7 0.00 0.00 0.00 92 1019.8
20260504050247 21 56 1.6 8.0 0.00 0.00 0.00 92 1019.8
20260504045745 21 74 3.2 8.0 0.00 0.00 0.00 92 1019.8
20260504045239 21 113 3.2 11.3 0.00 0.00 0.00 92 1019.9
20260504044737 21 41 4.8 9.7 0.00 0.00 0.00 92 1019.8
20260504044234 21 111 1.6 11.3 0.00 0.00 0.00 92 1019.9
20260504043731 21 80 4.8 12.9 0.00 0.00 0.00 92 1019.8
20260504043228 21 86 4.8 11.3 0.00 0.00 0.00 92 1019.7
20260504042726 21 96 8.0 12.9 0.00 0.00 0.00 92 1019.6
20260504042222 21 96 4.8 8.0 0.00 0.00 0.00 93 1019.6